SCP
0 0 0 0 0 0 0 0 0 0 0 0 0 0 0 0 0 0 0 0 0 0 0 0 0 0 0 0 0 0 0 0 0 0 0 0 0 0 0 0 0 0 -0
0 0 0 0 0 0 0 0 0 0 0 0 0 0 0 0 0 0 0 0 0 0 0 0 0 0 0 0 0 0 0 0 0 0 0 0 0 0 0 0 0 -0 0
0 0 0 0 0 0 0 0 0 0 0 0 0 0 0 0 0 0 0 0 0 0 0 0 0 0 0 0 0 0 0 0 0 0 0 0 0 0 0 0 0 0 0
0 0 0 0 0 0 0 0 0 0 0 0 0 0 0 0 0 0 0 0 0 0 0 0 0 0 0 0 0 0 0 0 0 0 0 0 0 0 0 0 0 0 0
0 0 0 0 0 0 0 0 0 0 0 0 0 0 0 0 0 0 0 0 0 0 0 0 0 0 0 0 0 0 0 0 0 0 0 0 0 0 0 0 0 0 0
0 0 0 0 0 0 0 0 0 0 0 0 0 0 0 0 0 0 0 0 0 0 0 0 0 0 0 0 0 0 0 0 0 0 0 -0 -0 0 0 0 0 0 -0
0 0 0 0 0 0 0 0 0 0 0 0 0 0 0 0 0 0 0 0 0 0 0 0 0 0 0 0 0 0 0 0 -0 -0 -0 -0 -0 -0 0 -0 -0 -0 -0
0 0 0 0 0 0 0 0 0 0 0 0 0 0 0 0 0 0 0 0 0 0 0 0 0 0 0 0 0 0 0 0 0 0 0 -0 -0 0 0 0 -0 -0 -0
0 0 0 0 0 0 0 0 0 0 0 0 0 0 0 0 0 0 0 0 0 0 0 0 0 0 0 0 0 0 0 0 0 0 0 -0 -0 -0 0 0 0 0 -0
0 0 0 0 0 0 0 0 0 0 0 0 0 0 0 0 0 0 0 0 0 0 0 0 0 0 0 0 0 0 0 0 0 0 0 0 0 0 0 0 0 -0 -0
0 0 0 0 0 0 0 0 0 0 0 0 0 0 0 0 0 0 0 0 0 0 0 0 0 0 0 0 0 0 0 0 0 0 0 0 0 0 0 0 0 0 0
0 0 0 0 0 0 0 0 0 0 0 0 0 0 0 0 0 0 0 0 0 0 0 0 0 0 0 0 0 0 0 0 0 0 0 0 0 0 0 0 0 0 0
0 0 0 0 0 0 0 0 0 0 0 0 0 0 0 0 0 0 0 0 0 0 0 0 0 0 0 0 0 0 0 0 0 0 0 0 -0 0 0 0 0 0 0
0 0 0 0 0 0 0 0 0 0 0 0 0 0 0 0 0 0 0 0 0 0 0 0 0 0 0 0 0 0 0 0 0 0 0 0 0 0 0 0 0 0 0
0 0 0 0 0 0 0 0 0 0 0 0 0 0 0 0 0 0 0 0 0 0 0 0 0 0 0 0 0 0 0 0 0 -0 -0 0 0 0 0 0 0 0 0
0 0 0 0 0 0 0 0 0 0 0 0 0 0 0 0 0 0 0 0 0 0 0 0 0 0 -0 0 0 0 0 0 0 0 0 0 0 0 0 0 0 0 0
0 0 0 0 0 0 0 0 0 0 0 0 0 0 0 0 0 0 0 0 0 0 0 0 0 -0 -0 0 0 0 0 0 0 0 0 -0 -0 -0 0 0 0 0 0
0 0 0 0 0 0 0 0 0 0 0 0 0 0 0 0 0 0 0 0 0 0 0 0 0 -0 0 0 0 0 0 0 0 0 0 -0 -0 -0 -0 0 0 0 0
0 0 0 0 0 0 0 0 0 0 0 0 0 0 0 0 0 0 0 0 0 0 0 0 0 -0 -0 0 0 0 0 -0 -0 -0 0 0 -0 -0 -0 -0 0 0 0
0 0 0 0 0 0 0 0 0 0 0 0 0 0 0 0 0 0 0 0 0 0 0 0 0 -0 -0 0 0 0 0 -0 0 0 0 0 0 0 0 0 0 0 0
0 0 0 0 0 0 0 0 0 0 0 0 0 0 0 0 0 0 0 0 0 0 0 0 0 0 0 0 0 0 -0 -0 0 0 0 0 0 0 0 0 0 0 0
0 0 0 0 0 0 0 0 0 0 0 0 0 0 0 0 0 0 0 0 0 0 0 -0 0 0 -0 0 0 0 -0 -0 -0 0 0 0 0 0 0 0 0 0 0
0 0 0 0 0 0 0 0 0 0 0 0 0 0 0 0 0 0 0 0 0 0 0 0 0 0 0 0 0 0 -0 -0 -0 0 0 0 0 0 0 0 0 0 0
0 0 0 0 0 0 0 0 0 0 0 0 0 0 0 0 0 0 0 0 0 0 0 0 0 0 0 -0 -0 -0 -0 -0 -0 -0 0 0 0 0 0 0 0 0 0
0 0 0 0 0 0 0 0 0 0 0 0 0 0 0 0 0 0 0 0 0 0 0 0 0 0 -0 -0 -0 -0 -0 -0 -0 -0 0 0 0 0 0 0 0 0 0
0 0 0 0 0 0 0 0 0 0 0 0 0 0 0 0 0 0 0 0 0 0 0 0 0 -0 -0 -0 -0 -0 -0 -0 -0 -0 -0 0 0 0 0 0 0 0 0
Wind_Speed_500mb
83 94 99 97 87 80 71 62 55 52 51 49 48 49 52 54 58 60 63 66 70 73 74 77 83 85 88 87 85 86 89 89 96 126 119 112 110 103 106 95 97 89 109
85 92 99 97 89 80 69 61 56 51 50 49 49 49 52 55 56 60 63 66 69 74 76 77 86 86 86 87 86 91 90 94 94 110 115 110 106 105 111 95 97 93 107
86 93 97 98 89 80 71 63 55 51 51 51 50 50 51 53 58 61 65 69 69 71 74 81 86 81 87 87 87 92 93 93 91 99 109 101 108 100 110 90 99 89 94
89 96 100 96 88 78 67 59 54 52 52 51 50 47 49 55 60 62 65 66 68 73 79 85 85 82 86 88 90 93 94 95 93 96 98 96 95 98 88 89 93 74 78
93 97 99 90 85 75 64 57 55 53 52 50 44 44 50 56 59 59 63 66 73 80 85 87 84 80 78 83 91 99 94 95 92 90 91 89 90 83 74 77 80 80 74
94 94 90 91 85 73 63 60 56 52 50 44 43 46 50 55 57 58 61 68 75 83 89 84 81 83 85 81 84 86 88 98 100 97 98 93 95 92 89 90 80 79 59
89 88 92 91 80 72 64 59 54 49 43 40 41 45 50 54 54 58 61 69 77 82 80 87 89 84 85 94 94 86 87 90 93 100 104 99 92 87 89 88 94 80 72
83 89 90 86 76 69 62 54 50 44 39 38 38 43 50 50 52 57 65 68 75 80 85 85 90 101 93 91 97 101 99 95 92 96 104 104 105 93 98 99 94 98 90
82 85 87 79 72 66 59 51 45 40 37 34 37 42 49 48 50 55 58 68 75 84 87 88 90 96 92 91 93 103 103 99 95 87 91 95 95 91 85 82 95 77 81
77 82 80 73 67 60 51 45 39 35 32 32 34 40 44 47 47 49 54 61 76 87 97 89 89 88 82 82 87 97 105 98 91 95 82 84 85 88 85 93 96 91 79
79 89 84 75 64 55 47 40 35 31 29 29 33 36 39 42 46 49 44 55 70 86 96 106 96 83 83 92 88 91 100 100 100 90 93 95 93 87 87 84 96 99 86
80 83 75 68 60 54 46 40 32 28 26 26 29 32 33 37 43 46 45 50 60 75 88 91 93 92 88 78 78 76 80 83 87 87 85 85 84 83 81 77 78 85 103
85 79 72 64 58 49 42 35 28 24 22 21 24 28 32 37 41 44 48 55 60 67 70 75 85 69 72 63 65 69 61 50 49 67 77 80 81 80 74 72 68 75 83
89 85 75 66 57 49 40 32 26 23 18 17 19 24 32 36 40 51 59 67 71 70 70 82 67 61 60 61 61 61 54 47 50 49 70 77 77 71 68 64 72 75 59
85 82 73 65 56 46 37 29 24 18 13 13 15 24 28 33 38 44 51 60 63 60 70 74 77 79 74 76 72 70 69 56 51 51 49 46 71 74 67 67 61 64 70
91 81 67 64 53 46 36 27 18 13 9 8 15 21 23 23 35 40 46 51 51 55 67 75 77 77 77 77 83 79 78 74 61 57 56 49 55 43 69 66 64 68 71
90 70 70 58 54 47 36 27 21 12 5 5 12 15 18 25 30 35 42 48 53 60 71 76 76 78 78 78 86 78 83 81 70 63 68 58 55 58 43 60 63 60 68
74 75 64 63 53 45 37 32 24 16 8 3 6 10 17 24 27 34 42 47 57 63 69 75 79 80 81 82 89 84 87 90 82 73 76 59 53 52 54 58 41 62 67
83 72 67 58 50 43 39 34 27 20 13 6 3 8 12 16 23 30 38 52 61 67 72 73 77 82 84 88 90 88 90 97 81 88 79 63 54 51 52 56 64 70 70
81 75 67 60 53 47 39 31 25 18 12 9 9 9 6 14 22 31 41 49 56 60 67 71 76 82 88 91 94 91 97 101 89 95 83 70 57 51 54 53 56 60 73
84 77 69 61 53 45 39 33 26 20 14 11 10 8 14 17 23 30 37 43 50 56 62 68 73 81 88 93 93 92 99 97 98 94 85 75 62 55 48 47 51 52 56
85 78 69 60 54 49 41 34 28 22 17 14 9 6 10 15 22 29 34 38 43 47 54 64 71 77 84 91 88 91 103 101 110 101 92 78 69 57 47 42 38 35 47
79 71 63 57 52 48 42 36 29 23 19 14 9 5 9 15 21 28 33 36 41 46 52 59 67 72 79 83 93 88 105 108 113 100 94 82 73 63 46 34 26 17 46
72 63 61 55 51 47 43 37 30 24 19 14 9 5 8 13 20 26 31 35 37 42 50 55 61 69 74 79 86 96 110 112 112 105 96 85 76 64 40 22 16 16 37
65 61 58 53 50 48 43 36 30 26 21 14 7 3 7 12 18 24 29 34 37 43 47 54 56 62 69 75 79 86 109 107 115 107 103 93 83 70 50 33 17 15 32
64 59 53 50 49 45 38 33 31 28 22 15 8 1 5 11 18 24 28 33 37 40 44 50 55 57 64 72 77 79 92 103 111 111 109 107 102 91 69 50 32 7 19
Wind_Direction_500mb
236 236 234 233 229 229 233 238 245 254 264 272 277 282 287 291 295 298 300 299 296 296 294 293 290 289 284 278 274 272 269 266 265 271 275 279 282 283 282 288 268 269 263
237 234 233 232 227 228 231 238 245 255 263 269 274 280 285 293 298 299 301 299 297 295 294 293 293 291 284 282 277 274 271 271 268 271 276 280 281 282 288 280 282 280 259
232 230 229 230 225 227 230 236 245 254 260 265 271 277 287 295 298 301 301 299 296 296 296 296 296 290 285 282 278 276 274 273 271 270 276 279 281 284 287 279 282 274 272
231 229 230 229 223 225 229 238 247 253 258 264 270 282 293 296 299 302 302 301 298 298 299 297 293 289 285 285 282 279 276 273 271 270 273 277 279 288 289 281 286 286 273
229 229 230 224 220 223 228 236 244 251 258 264 277 288 294 298 302 306 304 302 303 303 302 299 297 295 288 284 283 282 277 274 271 270 270 272 276 282 283 283 281 281 273
230 229 228 217 217 221 225 233 241 249 256 265 277 289 296 300 305 307 307 306 304 303 304 305 296 295 292 288 285 280 276 272 270 267 268 267 270 273 282 279 289 289 288
229 227 222 216 217 219 223 232 240 245 253 267 281 291 298 303 307 309 308 305 305 307 305 307 306 298 292 291 291 287 281 270 266 267 268 267 269 271 275 276 271 282 284
227 225 216 214 214 218 223 230 238 245 254 268 283 294 300 306 309 308 308 308 309 312 315 309 303 303 297 297 294 288 284 282 276 271 265 265 265 268 269 267 270 271 271
226 221 211 211 215 219 223 229 234 243 257 273 287 298 302 309 309 311 316 316 318 320 316 309 305 304 301 299 294 290 286 281 279 272 266 266 265 262 262 266 260 262 257
225 214 211 212 216 221 223 227 234 246 261 278 292 300 305 312 313 322 322 321 322 318 317 311 307 305 305 302 297 294 288 284 281 274 273 270 264 263 261 254 254 255 261
215 203 204 208 215 219 223 227 237 251 267 283 296 306 310 316 321 325 325 323 318 317 311 313 313 314 310 304 299 294 288 286 278 272 270 269 269 260 267 260 248 245 249
203 201 202 205 210 217 219 224 232 249 269 287 302 311 316 320 324 329 326 321 318 314 314 318 320 313 312 309 305 301 302 295 270 266 268 267 268 255 267 261 255 250 238
196 197 199 202 208 212 217 224 232 248 266 288 307 313 321 327 332 338 331 325 324 322 323 321 319 318 320 313 315 316 310 307 287 272 268 266 266 264 268 261 260 252 251
192 195 197 200 204 207 215 222 234 245 264 290 306 317 328 331 339 346 335 332 331 331 330 331 341 335 329 328 328 333 326 310 298 306 280 269 262 263 258 263 253 252 245
193 194 194 195 199 204 210 219 228 243 269 293 316 329 331 335 339 334 334 333 333 336 332 347 355 353 344 338 343 340 338 333 320 308 293 280 266 267 258 260 255 251 249
191 190 192 196 194 198 202 208 216 232 263 317 328 321 330 328 333 339 336 338 344 347 352 358 358 351 340 338 341 339 338 336 331 322 308 290 275 277 265 255 249 253 244
191 189 196 195 195 194 192 200 210 217 228 335 316 322 338 345 344 342 342 353 359 360 7 5 1 355 343 340 344 338 335 334 337 328 318 303 288 277 277 260 250 244 246
187 196 195 195 192 190 186 190 191 195 188 255 306 340 355 353 355 352 352 352 3 10 9 8 4 0 353 344 346 345 336 335 337 329 324 315 301 290 278 264 260 253 252
187 189 191 189 187 186 185 182 177 176 174 175 114 29 10 358 5 1 3 8 8 8 6 8 8 7 3 356 350 351 339 338 338 332 330 326 313 299 284 272 263 255 257
186 188 189 187 183 183 179 175 172 162 168 149 90 67 38 21 11 10 12 12 11 8 5 6 9 12 9 2 356 353 342 344 340 337 335 334 325 308 295 285 271 262 253
186 186 186 182 178 176 174 172 164 164 162 114 79 53 46 23 14 10 11 10 7 6 6 7 7 9 10 8 2 354 347 347 343 342 339 339 334 322 305 291 279 272 261
188 183 180 177 174 173 169 164 166 162 144 118 109 71 44 22 13 12 10 8 5 4 5 3 6 9 8 9 5 355 353 353 351 353 349 347 344 334 317 297 280 262 250
183 177 175 174 173 169 163 164 163 158 140 139 135 84 35 21 12 11 8 7 3 1 3 4 6 8 10 8 12 2 360 358 0 3 358 354 350 342 329 307 283 255 231
177 176 176 173 173 167 164 164 162 155 155 159 142 97 38 15 8 6 5 2 360 1 3 2 5 7 9 10 9 9 6 4 6 10 9 2 357 354 348 333 305 220 211
174 175 177 175 172 170 165 163 162 164 172 165 156 92 31 11 3 360 357 356 356 356 359 4 3 4 7 12 11 5 4 7 8 13 16 13 12 12 12 3 355 201 205
174 176 175 175 176 171 166 167 173 178 176 172 170 149 8 3 358 355 351 349 353 356 357 360 2 1 5 11 14 11 360 6 3 13 18 21 22 22 19 17 23 84 184
Wind_Speed_850mb
83 94 99 97 87 80 71 62 55 52 51 49 48 49 52 54 58 60 63 66 70 73 74 77 83 85 88 87 85 86 89 89 96 126 119 112 110 103 106 95 97 89 109
85 92 99 97 89 80 69 61 56 51 50 49 49 49 52 55 56 60 63 66 69 74 76 77 86 86 86 87 86 91 90 94 94 110 115 110 106 105 111 95 97 93 107
86 93 97 98 89 80 71 63 55 51 51 51 50 50 51 53 58 61 65 69 69 71 74 81 86 81 87 87 87 92 93 93 91 99 109 101 108 100 110 90 99 89 94
89 96 100 96 88 78 67 59 54 52 52 51 50 47 49 55 60 62 65 66 68 73 79 85 85 82 86 88 90 93 94 95 93 96 98 96 95 98 88 89 93 74 78
93 97 99 90 85 75 64 57 55 53 52 50 44 44 50 56 59 59 63 66 73 80 85 87 84 80 78 83 91 99 94 95 92 90 91 89 90 83 74 77 80 80 74
94 94 90 91 85 73 63 60 56 52 50 44 43 46 50 55 57 58 61 68 75 83 89 84 81 83 85 81 84 86 88 98 100 97 98 93 95 92 89 90 80 79 59
89 88 92 91 80 72 64 59 54 49 43 40 41 45 50 54 54 58 61 69 77 82 80 87 89 84 85 94 94 86 87 90 93 100 104 99 92 87 89 88 94 80 72
83 89 90 86 76 69 62 54 50 44 39 38 38 43 50 50 52 57 65 68 75 80 85 85 90 101 93 91 97 101 99 95 92 96 104 104 105 93 98 99 94 98 90
82 85 87 79 72 66 59 51 45 40 37 34 37 42 49 48 50 55 58 68 75 84 87 88 90 96 92 91 93 103 103 99 95 87 91 95 95 91 85 82 95 77 81
77 82 80 73 67 60 51 45 39 35 32 32 34 40 44 47 47 49 54 61 76 87 97 89 89 88 82 82 87 97 105 98 91 95 82 84 85 88 85 93 96 91 79
79 89 84 75 64 55 47 40 35 31 29 29 33 36 39 42 46 49 44 55 70 86 96 106 96 83 83 92 88 91 100 100 100 90 93 95 93 87 87 84 96 99 86
80 83 75 68 60 54 46 40 32 28 26 26 29 32 33 37 43 46 45 50 60 75 88 91 93 92 88 78 78 76 80 83 87 87 85 85 84 83 81 77 78 85 103
85 79 72 64 58 49 42 35 28 24 22 21 24 28 32 37 41 44 48 55 60 67 70 75 85 69 72 63 65 69 61 50 49 67 77 80 81 80 74 72 68 75 83
89 85 75 66 57 49 40 32 26 23 18 17 19 24 32 36 40 51 59 67 71 70 70 82 67 61 60 61 61 61 54 47 50 49 70 77 77 71 68 64 72 75 59
85 82 73 65 56 46 37 29 24 18 13 13 15 24 28 33 38 44 51 60 63 60 70 74 77 79 74 76 72 70 69 56 51 51 49 46 71 74 67 67 61 64 70
91 81 67 64 53 46 36 27 18 13 9 8 15 21 23 23 35 40 46 51 51 55 67 75 77 77 77 77 83 79 78 74 61 57 56 49 55 43 69 66 64 68 71
90 70 70 58 54 47 36 27 21 12 5 5 12 15 18 25 30 35 42 48 53 60 71 76 76 78 78 78 86 78 83 81 70 63 68 58 55 58 43 60 63 60 68
74 75 64 63 53 45 37 32 24 16 8 3 6 10 17 24 27 34 42 47 57 63 69 75 79 80 81 82 89 84 87 90 82 73 76 59 53 52 54 58 41 62 67
83 72 67 58 50 43 39 34 27 20 13 6 3 8 12 16 23 30 38 52 61 67 72 73 77 82 84 88 90 88 90 97 81 88 79 63 54 51 52 56 64 70 70
81 75 67 60 53 47 39 31 25 18 12 9 9 9 6 14 22 31 41 49 56 60 67 71 76 82 88 91 94 91 97 101 89 95 83 70 57 51 54 53 56 60 73
84 77 69 61 53 45 39 33 26 20 14 11 10 8 14 17 23 30 37 43 50 56 62 68 73 81 88 93 93 92 99 97 98 94 85 75 62 55 48 47 51 52 56
85 78 69 60 54 49 41 34 28 22 17 14 9 6 10 15 22 29 34 38 43 47 54 64 71 77 84 91 88 91 103 101 110 101 92 78 69 57 47 42 38 35 47
79 71 63 57 52 48 42 36 29 23 19 14 9 5 9 15 21 28 33 36 41 46 52 59 67 72 79 83 93 88 105 108 113 100 94 82 73 63 46 34 26 17 46
72 63 61 55 51 47 43 37 30 24 19 14 9 5 8 13 20 26 31 35 37 42 50 55 61 69 74 79 86 96 110 112 112 105 96 85 76 64 40 22 16 16 37
65 61 58 53 50 48 43 36 30 26 21 14 7 3 7 12 18 24 29 34 37 43 47 54 56 62 69 75 79 86 109 107 115 107 103 93 83 70 50 33 17 15 32
64 59 53 50 49 45 38 33 31 28 22 15 8 1 5 11 18 24 28 33 37 40 44 50 55 57 64 72 77 79 92 103 111 111 109 107 102 91 69 50 32 7 19
Wind_Direction_850mb
236 236 234 233 229 229 233 238 245 254 264 272 277 282 287 291 295 298 300 299 296 296 294 293 290 289 284 278 274 272 269 266 265 271 275 279 282 283 282 288 268 269 263
237 234 233 232 227 228 231 238 245 255 263 269 274 280 285 293 298 299 301 299 297 295 294 293 293 291 284 282 277 274 271 271 268 271 276 280 281 282 288 280 282 280 259
232 230 229 230 225 227 230 236 245 254 260 265 271 277 287 295 298 301 301 299 296 296 296 296 296 290 285 282 278 276 274 273 271 270 276 279 281 284 287 279 282 274 272
231 229 230 229 223 225 229 238 247 253 258 264 270 282 293 296 299 302 302 301 298 298 299 297 293 289 285 285 282 279 276 273 271 270 273 277 279 288 289 281 286 286 273
229 229 230 224 220 223 228 236 244 251 258 264 277 288 294 298 302 306 304 302 303 303 302 299 297 295 288 284 283 282 277 274 271 270 270 272 276 282 283 283 281 281 273
230 229 228 217 217 221 225 233 241 249 256 265 277 289 296 300 305 307 307 306 304 303 304 305 296 295 292 288 285 280 276 272 270 267 268 267 270 273 282 279 289 289 288
229 227 222 216 217 219 223 232 240 245 253 267 281 291 298 303 307 309 308 305 305 307 305 307 306 298 292 291 291 287 281 270 266 267 268 267 269 271 275 276 271 282 284
227 225 216 214 214 218 223 230 238 245 254 268 283 294 300 306 309 308 308 308 309 312 315 309 303 303 297 297 294 288 284 282 276 271 265 265 265 268 269 267 270 271 271
226 221 211 211 215 219 223 229 234 243 257 273 287 298 302 309 309 311 316 316 318 320 316 309 305 304 301 299 294 290 286 281 279 272 266 266 265 262 262 266 260 262 257
225 214 211 212 216 221 223 227 234 246 261 278 292 300 305 312 313 322 322 321 322 318 317 311 307 305 305 302 297 294 288 284 281 274 273 270 264 263 261 254 254 255 261
215 203 204 208 215 219 223 227 237 251 267 283 296 306 310 316 321 325 325 323 318 317 311 313 313 314 310 304 299 294 288 286 278 272 270 269 269 260 267 260 248 245 249
203 201 202 205 210 217 219 224 232 249 269 287 302 311 316 320 324 329 326 321 318 314 314 318 320 313 312 309 305 301 302 295 270 266 268 267 268 255 267 261 255 250 238
196 197 199 202 208 212 217 224 232 248 266 288 307 313 321 327 332 338 331 325 324 322 323 321 319 318 320 313 315 316 310 307 287 272 268 266 266 264 268 261 260 252 251
192 195 197 200 204 207 215 222 234 245 264 290 306 317 328 331 339 346 335 332 331 331 330 331 341 335 329 328 328 333 326 310 298 306 280 269 262 263 258 263 253 252 245
193 194 194 195 199 204 210 219 228 243 269 293 316 329 331 335 339 334 334 333 333 336 332 347 355 353 344 338 343 340 338 333 320 308 293 280 266 267 258 260 255 251 249
191 190 192 196 194 198 202 208 216 232 263 317 328 321 330 328 333 339 336 338 344 347 352 358 358 351 340 338 341 339 338 336 331 322 308 290 275 277 265 255 249 253 244
191 189 196 195 195 194 192 200 210 217 228 335 316 322 338 345 344 342 342 353 359 360 7 5 1 355 343 340 344 338 335 334 337 328 318 303 288 277 277 260 250 244 246
187 196 195 195 192 190 186 190 191 195 188 255 306 340 355 353 355 352 352 352 3 10 9 8 4 0 353 344 346 345 336 335 337 329 324 315 301 290 278 264 260 253 252
187 189 191 189 187 186 185 182 177 176 174 175 114 29 10 358 5 1 3 8 8 8 6 8 8 7 3 356 350 351 339 338 338 332 330 326 313 299 284 272 263 255 257
186 188 189 187 183 183 179 175 172 162 168 149 90 67 38 21 11 10 12 12 11 8 5 6 9 12 9 2 356 353 342 344 340 337 335 334 325 308 295 285 271 262 253
186 186 186 182 178 176 174 172 164 164 162 114 79 53 46 23 14 10 11 10 7 6 6 7 7 9 10 8 2 354 347 347 343 342 339 339 334 322 305 291 279 272 261
188 183 180 177 174 173 169 164 166 162 144 118 109 71 44 22 13 12 10 8 5 4 5 3 6 9 8 9 5 355 353 353 351 353 349 347 344 334 317 297 280 262 250
183 177 175 174 173 169 163 164 163 158 140 139 135 84 35 21 12 11 8 7 3 1 3 4 6 8 10 8 12 2 360 358 0 3 358 354 350 342 329 307 283 255 231
177 176 176 173 173 167 164 164 162 155 155 159 142 97 38 15 8 6 5 2 360 1 3 2 5 7 9 10 9 9 6 4 6 10 9 2 357 354 348 333 305 220 211
174 175 177 175 172 170 165 163 162 164 172 165 156 92 31 11 3 360 357 356 356 356 359 4 3 4 7 12 11 5 4 7 8 13 16 13 12 12 12 3 355 201 205
174 176 175 175 176 171 166 167 173 178 176 172 170 149 8 3 358 355 351 349 353 356 357 360 2 1 5 11 14 11 360 6 3 13 18 21 22 22 19 17 23 84 184